K5GTX Weather Reports


time (UTC)temp
F
wind
direction
speed
knots
gust
knots
rain 1hr
in
rain 24hr
in
rain mn
in
humidity
%
barometer
mb
20260508220350 80 112 0.0 1.7 0.00 0.60 0.60 99 1014.9
20260508215847 79 254 0.9 2.6 0.00 0.60 0.60 99 1015.2
20260508215344 79 100 0.0 3.5 0.00 0.60 0.60 99 1014.9
20260508214841 79 140 1.7 2.6 0.00 0.60 0.60 99 1015.0
20260508214338 80 109 0.0 4.3 0.00 0.60 0.60 99 1014.9
20260508213834 80 105 0.0 2.6 0.00 0.60 0.60 99 1015.0
20260508213332 79 245 0.0 3.5 0.00 0.60 0.60 99 1015.0
20260508212827 78 202 0.0 3.5 0.00 0.60 0.60 99 1015.2
20260508212324 79 132 1.7 3.5 0.00 0.60 0.60 99 1015.2
20260508211820 79 99 1.7 2.6 0.00 0.60 0.60 99 1015.2
20260508211315 79 283 0.0 3.5 0.00 0.60 0.60 99 1015.8
20260508210813 79 147 0.0 2.6 0.00 0.60 0.60 99 1015.9
20260508210310 79 79 0.0 4.3 0.00 0.60 0.60 99 1016.2
20260508205807 77 188 1.7 4.3 0.00 0.60 0.60 99 1016.6
20260508205306 76 135 1.7 2.6 0.00 0.60 0.60 99 1016.2
20260508204759 76 145 0.9 5.2 0.00 0.60 0.60 99 1016.4
20260508204256 76 270 0.9 6.1 0.00 0.60 0.60 99 1016.9
20260508203752 76 231 0.0 8.7 0.00 0.60 0.60 99 1016.8
20260508203249 77 240 0.9 3.5 0.00 0.60 0.60 99 1017.0
20260508202744 77 226 4.3 4.3 0.00 0.60 0.60 99 1016.8
20260508202242 77 143 2.6 7.8 0.00 0.60 0.60 99 1017.1
20260508201739 77 184 0.0 5.2 0.00 0.60 0.60 99 1017.2
20260508201235 77 280 4.3 9.6 0.00 0.60 0.60 99 1016.9
20260508200732 78 241 0.0 4.3 0.00 0.60 0.60 99 1017.0
20260508200228 79 159 1.7 5.2 0.00 0.60 0.60 99 1017.0
20260508195725 79 203 0.9 4.3 0.00 0.60 0.60 99 1017.3
20260508195221 79 173 0.0 4.3 0.00 0.60 0.60 99 1017.2
20260508194718 79 98 0.9 4.3 0.00 0.60 0.60 99 1017.0
20260508194215 79 105 0.0 2.6 0.00 0.60 0.60 99 1017.1
20260508193712 81 106 0.0 1.7 0.00 0.60 0.60 99 1017.0
20260508193208 80 265 1.7 3.5 0.00 0.60 0.60 99 1017.5
20260508192705 81 132 0.0 1.7 0.00 0.60 0.60 99 1017.3
20260508192202 80 195 0.0 2.6 0.00 0.60 0.60 99 1017.4
20260508191700 80 109 0.0 2.6 0.00 0.60 0.60 99 1017.6
20260508191156 80 215 0.0 1.7 0.00 0.60 0.60 99 1017.3
20260508190654 80 131 0.0 4.3 0.00 0.60 0.60 99 1017.6
20260508190149 78 90 0.9 2.6 0.00 0.60 0.60 99 1017.5
20260508185646 78 103 0.0 3.5 0.00 0.60 0.60 99 1017.3
20260508185144 79 105 0.0 3.5 0.00 0.60 0.60 99 1017.6
20260508184641 78 141 2.6 2.6 0.00 0.60 0.60 99 1017.4
20260508184138 78 105 0.0 2.6 0.00 0.60 0.60 99 1017.5
20260508183635 77 117 0.0 2.6 0.00 0.60 0.60 99 1017.7
20260508183130 76 132 1.7 3.5 0.00 0.60 0.60 99 1018.0
20260508182627 79 90 0.0 1.7 0.00 0.60 0.60 99 1018.1
20260508182124 78 117 0.9 1.7 0.00 0.60 0.60 99 1018.3
20260508181619 77 114 0.0 3.5 0.00 0.60 0.60 99 1018.3
20260508181117 77 127 1.7 1.7 0.00 0.60 0.60 99 1018.5
20260508180613 77 103 0.0 2.6 0.00 0.60 0.60 99 1018.5
20260508180110 77 48 0.0 1.7 0.00 0.60 0.60 99 1018.3
20260508175607 77 131 1.7 2.6 0.00 0.60 0.60 99 1018.6
20260508175104 76 63 2.6 2.6 0.00 0.60 0.60 99 1018.5
20260508174601 76 105 0.9 2.6 0.00 0.60 0.60 99 1018.5
20260508174058 76 105 0.9 4.3 0.00 0.60 0.60 99 1018.7
20260508173555 76 195 0.0 0.9 0.00 0.60 0.60 99 1018.8
20260508173051 74 208 1.7 2.6 0.00 0.60 0.60 99 1019.0
20260508172548 75 128 0.0 2.6 0.00 0.60 0.60 99 1018.9
20260508172045 74 125 1.7 2.6 0.00 0.60 0.60 99 1019.1
20260508171541 75 113 1.7 2.6 0.00 0.60 0.60 99 1019.2
20260508171038 75 146 1.7 2.6 0.00 0.60 0.60 99 1019.7
20260508170535 74 32 1.7 2.6 0.00 0.60 0.60 99 1019.7
20260508170032 73 127 1.7 2.6 0.00 0.60 0.60 99 1019.7
20260508165529 73 180 1.7 5.2 0.00 0.60 0.60 99 1019.6
20260508165026 72 143 2.6 3.5 0.00 0.60 0.60 99 1019.9
20260508164523 71 236 2.6 2.6 0.00 0.60 0.60 99 1019.9
20260508164019 71 120 0.0 2.6 0.00 0.60 0.60 99 1019.9
20260508163517 71 208 0.0 1.7 0.00 0.60 0.60 99 1020.3
20260508163013 71 106 0.9 1.7 0.00 0.60 0.60 99 1020.4
20260508162511 71 112 0.0 4.3 0.00 0.60 0.60 99 1020.8
20260508162008 70 157 0.0 3.5 0.00 0.60 0.60 99 1020.6
20260508161504 70 216 0.0 3.5 0.00 0.60 0.60 99 1020.5
20260508161001 69 255 0.0 2.6 0.00 0.60 0.60 99 1020.7
20260508160500 69 168 0.0 3.5 0.00 0.60 0.60 99 1020.7
20260508155956 70 275 0.0 4.3 0.00 0.60 0.60 99 1020.7
20260508155453 70 213 2.6 9.6 0.00 0.60 0.60 99 1020.5
20260508154950 69 176 0.0 3.5 0.00 0.60 0.60 99 1021.0
20260508154448 68 270 0.9 1.7 0.00 0.60 0.60 99 1021.0
20260508153944 68 265 1.7 1.7 0.00 0.60 0.60 99 1021.1
20260508153441 67 270 0.9 0.9 0.00 0.60 0.60 99 1020.9
20260508152937 67 262 0.0 1.7 0.00 0.60 0.60 99 1020.9
20260508152434 67 263 0.0 1.7 0.00 0.60 0.60 99 1021.1
20260508151930 66 117 0.0 0.0 3.59 0.60 0.60 99 1020.9
20260508151427 67 254 0.0 0.9 3.59 0.60 0.60 99 1021.2
20260508150924 67 219 0.0 0.0 0.00 0.00 0.00 99 1021.2
20260508150420 67 225 0.0 1.7 0.00 0.00 0.00 99 1021.1
20260508145916 67 257 0.0 0.9 0.00 0.00 0.00 99 1021.3
20260508145413 66 253 0.0 1.7 0.00 0.00 0.00 99 1021.1
20260508144910 66 254 0.0 2.6 0.00 0.00 0.00 99 1021.2
20260508144408 66 209 0.0 3.5 0.00 0.00 0.00 99 1020.9
20260508143905 65 180 0.0 0.9 0.00 0.00 0.00 99 1021.1
20260508143402 65 235 0.0 1.7 0.00 0.00 0.00 99 1021.2
20260508142859 65 236 0.0 1.7 0.00 0.00 0.00 99 1021.4
20260508142356 66 254 0.0 0.9 0.00 0.00 0.00 99 1021.2
20260508141852 63 261 0.0 0.0 0.00 0.00 0.00 99 1021.1
20260508141349 62 234 0.0 1.7 0.00 0.00 0.00 99 1021.4
20260508140847 62 270 0.0 1.7 0.00 0.00 0.00 99 1021.6
20260508140343 62 294 0.0 1.7 0.00 0.00 0.00 99 1021.4
20260508135839 61 270 0.0 0.0 0.00 0.00 0.00 99 1021.3
20260508135335 62 270 0.0 0.0 0.00 0.00 0.00 99 1021.4
20260508134832 61 261 0.0 1.7 0.00 0.00 0.00 99 1021.5
20260508134328 61 173 0.0 0.9 0.00 0.00 0.00 99 1021.5
20260508133825 61 255 0.0 0.0 0.00 0.00 0.00 99 1021.1
20260508133323 61 270 0.9 0.9 0.00 0.00 0.00 99 1021.2
20260508132820 60 180 0.0 0.9 0.00 0.00 0.00 99 1021.4
20260508132318 60 259 0.0 1.7 0.00 0.00 0.00 99 1021.5
20260508131814 60 279 0.0 0.0 0.00 0.00 0.00 99 1021.4
20260508131310 60 270 0.0 0.0 0.00 0.00 0.00 99 1021.2
20260508130806 60 278 0.9 1.7 0.00 0.00 0.00 99 1021.1
20260508130304 60 255 0.0 0.0 0.00 0.00 0.00 99 1021.5
20260508125800 60 255 0.0 0.9 0.00 0.00 0.00 99 1021.9
20260508125256 59 282 1.7 1.7 0.00 0.00 0.00 99 1021.9
20260508124754 59 286 0.0 0.9 0.00 0.00 0.00 99 1021.7
20260508124251 59 278 0.0 0.0 0.00 0.00 0.00 99 1021.7
20260508123749 59 261 0.0 1.7 0.00 0.00 0.00 99 1021.9
20260508123247 60 218 0.0 1.7 0.00 0.00 0.00 99 1021.7
20260508122743 59 285 0.0 0.0 0.00 0.00 0.00 99 1021.7
20260508122240 59 285 0.0 1.7 0.00 0.00 0.00 99 1021.7
20260508121737 59 279 0.0 0.0 0.00 0.00 0.00 99 1021.7
20260508121236 59 236 0.0 1.7 0.00 0.00 0.00 99 1021.6
20260508120733 59 221 0.0 1.7 0.00 0.00 0.00 99 1021.3
20260508120231 59 270 0.0 0.0 0.00 0.00 0.00 99 1021.5
20260508115728 59 206 0.0 1.7 0.00 0.00 0.00 99 1021.9
20260508115226 59 270 0.9 1.7 0.00 0.00 0.00 99 1021.7
20260508114722 59 262 0.9 1.7 0.00 0.00 0.00 99 1021.4
20260508114218 59 292 1.7 1.7 0.00 0.00 0.00 99 1021.4
20260508113715 60 246 0.0 1.7 0.00 0.00 0.00 99 1021.6
20260508113214 60 261 0.0 0.0 0.00 0.00 0.00 99 1021.6
20260508112709 60 306 0.0 0.9 0.00 0.00 0.00 99 1021.4
20260508112207 60 270 0.0 0.0 0.00 0.00 0.00 99 1021.2
20260508111703 60 270 0.0 0.9 0.00 0.00 0.00 99 1021.1
20260508111201 60 215 0.0 2.6 0.00 0.00 0.00 99 1021.4
20260508110658 60 114 0.0 0.9 0.00 0.00 0.00 99 1021.2
20260508110155 60 261 0.0 0.9 0.00 0.00 0.00 99 1021.8
20260508105655 60 297 0.9 1.7 0.00 0.00 0.00 99 1022.3
20260508105152 60 286 0.0 2.6 0.00 0.00 0.00 99 1021.8
20260508104649 60 246 0.0 0.0 0.00 0.00 0.00 99 1021.5
20260508104146 60 246 0.0 1.7 0.00 0.00 0.00 99 1021.6
20260508103643 60 314 3.5 5.2 0.00 0.00 0.00 99 1022.2
20260508103140 60 331 0.0 1.7 0.00 0.00 0.00 99 1021.3
20260508102637 60 328 0.0 0.0 0.00 0.00 0.00 99 1020.9
20260508102136 60 325 0.9 3.5 0.00 0.00 0.00 99 1021.4
20260508101632 59 283 1.7 2.6 0.00 0.00 0.00 99 1020.8
20260508101130 59 261 0.0 0.9 0.00 0.00 0.00 99 1020.4
20260508100627 59 277 0.0 1.7 0.00 0.00 0.00 99 1020.3
20260508100125 59 261 0.0 1.7 0.00 0.00 0.00 99 1020.5
20260508095621 59 270 0.0 0.0 0.00 0.00 0.00 99 1020.4
20260508095119 59 270 0.0 0.9 0.00 0.00 0.00 99 1020.7
20260508094615 59 270 0.0 0.9 0.00 0.00 0.00 99 1020.6
20260508094112 59 270 0.0 0.9 0.00 0.00 0.00 99 1020.4
20260508093609 59 254 0.0 0.0 0.00 0.00 0.00 99 1020.6
20260508093107 59 254 0.0 1.7 0.00 0.00 0.00 99 1020.9
20260508092604 59 285 0.9 0.9 0.00 0.00 0.00 99 1020.9
20260508092103 59 270 0.0 0.0 0.00 0.00 0.00 99 1020.8
20260508091559 59 270 0.0 0.9 0.00 0.00 0.00 99 1020.6
20260508091056 59 294 0.0 0.9 0.00 0.00 0.00 99 1020.8
20260508090554 59 233 1.7 1.7 0.00 0.00 0.00 99 1021.3
20260508090051 60 262 0.0 0.0 0.00 0.00 0.00 99 1020.9
20260508085547 60 234 0.9 1.7 0.00 0.00 0.00 99 1021.7
20260508085045 60 254 0.9 1.7 0.00 0.00 0.00 99 1021.4
20260508084541 60 291 3.5 3.5 0.00 0.00 0.00 99 1021.4
20260508084039 59 303 1.7 2.6 0.00 0.00 0.00 99 1021.0
20260508083536 59 75 0.0 1.7 0.00 0.00 0.00 99 1020.3
20260508083032 59 246 0.0 1.7 0.00 0.00 0.00 99 1020.9
20260508082528 60 279 0.0 0.0 0.00 0.00 0.00 99 1021.2
20260508082026 60 279 0.0 1.7 0.00 0.00 0.00 99 1021.8
20260508081523 60 90 0.0 1.7 0.00 0.00 0.00 99 1021.7
20260508081019 61 90 0.0 0.0 0.00 0.00 0.00 99 1021.5
20260508080517 62 120 0.9 1.7 0.00 0.00 0.00 99 1021.7
20260508080014 62 303 0.0 2.6 0.00 0.00 0.00 99 1022.3
20260508075511 62 257 0.0 3.5 0.00 0.00 0.00 99 1022.6
20260508075008 62 270 0.9 1.7 0.00 0.00 0.00 99 1022.7
20260508074506 62 261 0.0 1.7 0.00 0.00 0.00 99 1022.4
20260508074003 61 251 1.7 2.6 0.00 0.00 0.00 99 1022.4
20260508073500 61 98 0.0 0.0 0.00 0.00 0.00 99 1021.8
20260508072957 61 98 0.0 0.0 0.00 0.00 0.00 99 1022.0
20260508072453 60 98 0.0 0.0 0.00 0.00 0.00 99 1021.8
20260508071950 60 98 0.0 0.0 0.00 0.00 0.00 99 1021.8
20260508071448 60 15 0.0 0.9 0.00 0.00 0.00 99 1022.1
20260508070945 60 99 0.0 0.0 0.00 0.00 0.00 99 1021.8
20260508070443 60 99 0.0 0.0 0.00 0.00 0.00 99 1021.9
20260508065941 60 99 0.0 0.0 0.00 0.00 0.00 99 1021.9
20260508065439 60 81 0.0 0.0 0.00 0.00 0.00 99 1022.2
20260508064937 60 90 0.0 0.0 0.00 0.00 0.00 99 1022.2
20260508064434 60 90 0.0 0.0 0.00 0.00 0.00 99 1022.5
20260508063931 60 66 0.0 1.7 0.00 0.00 0.00 99 1022.6
20260508063429 60 14 0.0 0.9 0.00 0.00 0.00 99 1022.7
20260508062926 60 90 0.0 0.0 0.00 0.00 0.00 99 1022.4
20260508062424 60 195 0.0 0.0 0.00 0.00 0.00 99 1022.6
20260508061921 60 195 0.0 0.0 0.00 0.00 0.00 99 1022.9
20260508061419 60 114 0.0 0.0 0.00 0.00 0.00 99 1022.8
20260508060914 60 114 0.0 0.0 0.00 0.00 0.00 99 1022.4
20260508060412 60 114 0.0 0.9 0.00 0.00 0.00 99 1022.4
20260508055907 60 114 0.0 0.9 0.00 0.00 0.00 99 1022.1
20260508055405 60 99 0.0 0.0 0.00 0.00 0.00 99 1022.5
20260508054901 60 99 0.0 0.0 0.00 0.00 0.00 99 1022.4
20260508054358 60 99 0.0 0.0 0.00 0.00 0.00 99 1022.4
20260508053855 60 99 0.0 0.0 0.00 0.00 0.00 99 1022.2
20260508053353 60 99 0.0 0.0 0.00 0.00 0.00 99 1022.5
20260508052850 61 99 0.0 0.0 0.00 0.00 0.00 99 1022.5
20260508052347 61 99 0.0 0.0 0.00 0.00 0.00 99 1022.7
20260508051843 60 99 0.0 0.0 0.00 0.00 0.00 99 1022.7
20260508051339 61 99 0.0 0.0 0.00 0.00 0.00 99 1022.6
20260508050835 61 99 0.0 0.0 0.00 0.00 0.00 99 1022.6
20260508050333 61 99 0.0 0.0 0.00 0.00 0.00 99 1022.3
20260508045828 62 99 0.0 0.0 0.00 0.00 0.00 99 1022.5
20260508045326 62 99 0.0 0.0 0.00 0.00 0.00 99 1022.5
20260508044823 62 99 0.0 0.0 0.00 0.00 0.00 99 1022.6
20260508044320 62 99 0.0 0.0 0.00 0.00 0.00 99 1022.5
20260508043816 62 99 0.0 0.0 0.00 0.00 0.00 99 1022.4
20260508043313 62 99 0.0 0.0 0.00 0.00 0.00 99 1022.2
20260508042810 62 66 0.0 0.9 0.00 0.00 0.00 99 1022.5
20260508042308 62 114 0.0 0.0 0.00 0.00 0.00 99 1022.4
20260508041804 62 114 0.0 0.0 0.00 0.00 0.00 99 1022.4
20260508041301 62 114 0.0 0.0 0.00 0.00 0.00 99 1022.3
20260508040757 62 90 0.0 0.0 0.00 0.00 0.00 99 1022.4
20260508040255 62 20 0.0 0.0 0.00 0.00 0.00 99 1022.4
20260508035752 62 20 0.0 0.0 0.00 0.00 0.00 99 1022.2
20260508035249 62 20 0.0 0.0 0.00 0.00 0.00 99 1022.5
20260508034745 62 20 0.0 0.0 0.00 0.00 0.00 99 1022.5
20260508034243 62 32 0.0 1.7 0.00 0.00 0.00 99 1022.5
20260508033740 62 54 0.0 0.9 0.00 0.00 0.00 99 1022.4
20260508033238 62 90 0.0 0.9 0.00 0.00 0.00 99 1022.4
20260508032735 62 90 0.0 0.0 0.00 0.00 0.00 99 1022.3
20260508032232 62 90 0.0 0.0 0.00 0.00 0.00 99 1022.2
20260508031729 62 90 0.0 0.0 0.00 0.00 0.00 99 1022.3
20260508031225 62 99 0.0 0.0 0.00 0.00 0.00 99 1022.3
20260508030722 62 99 0.0 0.0 0.00 0.00 0.00 99 1022.1
20260508030220 62 99 0.0 0.0 0.00 0.00 0.00 99 1022.2
20260508025716 63 99 0.0 0.0 0.00 0.00 0.00 99 1022.2
20260508025213 63 99 0.0 0.0 0.00 0.00 0.00 99 1022.2
20260508024709 63 90 0.0 0.0 0.00 0.00 0.00 99 1022.1
20260508024206 63 99 0.0 0.0 0.00 0.00 0.00 99 1022.2
20260508023702 63 99 0.0 0.9 0.00 0.00 0.00 99 1021.9
20260508023200 63 99 0.0 0.0 0.00 0.00 0.00 99 1021.9
20260508022655 64 90 0.0 0.0 0.00 0.00 0.00 99 1021.8
20260508022153 64 90 0.0 0.0 0.00 0.00 0.00 99 1021.6
20260508021649 64 90 0.0 0.0 0.00 0.00 0.00 99 1021.9
20260508021144 64 90 0.0 0.0 0.00 0.00 0.00 99 1021.7
20260508020643 64 90 0.0 0.0 0.00 0.00 0.00 99 1021.7
20260508020140 64 90 0.0 0.0 0.00 0.00 0.00 99 1021.6
20260508015637 64 90 0.0 0.0 0.00 0.00 0.00 99 1021.6
20260508015134 64 90 0.0 0.0 0.00 0.00 0.00 99 1021.8
20260508014630 64 90 0.0 0.0 0.00 0.00 0.00 99 1021.8
20260508014126 65 90 0.0 0.0 0.00 0.00 0.00 99 1021.8
20260508013623 65 90 0.0 0.0 0.00 0.00 0.00 99 1021.7
20260508013120 65 90 0.0 0.0 0.00 0.00 0.00 99 1021.7
20260508012617 65 90 0.0 0.0 0.00 0.00 0.00 99 1021.7
20260508012114 66 98 0.0 0.0 0.00 0.00 0.00 99 1021.4
20260508011613 66 105 0.0 0.9 0.00 0.00 0.00 99 1021.7
20260508011110 66 99 0.0 0.9 0.00 0.00 0.00 99 1021.7
20260508010606 66 261 0.0 0.9 0.00 0.00 0.00 99 1021.6
20260508010105 67 151 0.0 2.6 0.00 0.00 0.00 99 1021.5
20260508005601 67 90 0.9 0.9 0.00 0.00 0.00 99 1021.3
20260508005057 67 90 0.0 1.7 0.00 0.00 0.00 99 1021.6
20260508004553 67 90 0.9 0.9 0.00 0.00 0.00 99 1021.5
20260508004050 68 145 0.0 2.6 0.00 0.00 0.00 99 1021.4
20260508003546 68 90 0.0 1.7 0.00 0.00 0.00 99 1021.4
20260508003044 68 140 0.0 1.7 0.00 0.00 0.00 99 1021.3
20260508002540 69 160 0.0 2.6 0.00 0.00 0.00 99 1021.6
20260508002038 68 146 0.0 1.7 0.00 0.00 0.00 99 1021.6
20260508001533 69 148 1.7 1.7 0.00 0.00 0.00 99 1021.6
20260508001029 69 90 0.0 1.7 0.00 0.00 0.00 99 1021.5
20260508000525 70 194 0.0 2.6 0.00 0.00 0.00 99 1021.7
20260508000023 70 140 0.0 2.6 0.00 0.00 0.00 99 1021.6
20260507235519 71 144 0.0 1.7 0.00 0.00 0.00 99 1021.4
20260507235017 72 103 0.0 1.7 0.00 0.00 0.00 99 1021.5
20260507234513 72 120 0.0 3.5 0.00 0.00 0.00 99 1021.2
20260507234010 72 114 0.9 2.6 0.00 0.00 0.00 99 1021.4
20260507233506 72 98 0.0 1.7 0.00 0.00 0.00 99 1021.6
20260507233006 72 103 0.9 1.7 0.00 0.00 0.00 99 1021.4
20260507232501 72 254 0.0 0.9 0.00 0.00 0.00 99 1021.5
20260507231959 72 124 0.0 1.7 0.00 0.00 0.00 99 1021.2
20260507231455 72 99 0.0 1.7 0.00 0.00 0.00 99 1021.7
20260507230952 72 90 0.0 1.7 0.00 0.00 0.00 99 1021.5
20260507230449 73 105 0.9 2.6 0.00 0.00 0.00 99 1021.6
20260507225944 72 114 0.0 1.7 0.00 0.00 0.00 99 1021.5
20260507225440 72 115 1.7 1.7 0.00 0.00 0.00 99 1021.5
20260507224937 72 90 0.9 1.7 0.00 0.00 0.00 99 1021.6
20260507224432 72 90 1.7 1.7 0.00 0.00 0.00 99 1021.7
20260507223930 72 107 0.0 1.7 0.00 0.00 0.00 99 1021.8
20260507223426 73 100 0.0 1.7 0.00 0.00 0.00 99 1021.7
20260507222923 73 90 0.0 1.7 0.00 0.00 0.00 99 1022.0
20260507222420 73 117 0.9 1.7 0.00 0.00 0.00 99 1022.1
20260507221916 73 126 0.0 1.7 0.00 0.00 0.00 99 1022.0
20260507221413 73 124 2.6 2.6 0.00 0.00 0.00 99 1021.8
20260507220908 73 143 0.0 1.7 0.00 0.00 0.00 99 1021.9